This is the latest recevied weather packets stored in our database for station/object KD0RII. If no packets are shown the sender has not sent any weather packets the latest 10 day(s).
| Time | Temp. | Humidity | Pressure | Rain* | Wind** | Luminosity | Snow |
|---|---|---|---|---|---|---|---|
| 1778097662 | 16.67° C | 39% | 1019.9 hPa | 0 mm | - | 785 W/m² | - |
| 1778097359 | 16.67° C | 42% | 1019.8 hPa | 0 mm | - | 789 W/m² | - |
| 1778097055 | 16.67° C | 42% | 1020 hPa | 0 mm | - | 805 W/m² | - |
| 1778096753 | 16.67° C | 41% | 1020.2 hPa | 0 mm | - | 804 W/m² | - |
| 1778096449 | 16.67° C | 42% | 1019.9 hPa | 0 mm | - | 807 W/m² | - |
| 1778096147 | 16.11° C | 39% | 1020.3 hPa | 0 mm | - | 812 W/m² | - |
| 1778095844 | 16.11° C | 39% | 1020 hPa | 0 mm | - | 817 W/m² | - |
| 1778095541 | 16.11° C | 44% | 1020.3 hPa | 0 mm | - | 821 W/m² | - |
| 1778095237 | 16.67° C | 41% | 1020.2 hPa | 0 mm | - | 826 W/m² | - |
| 1778094934 | 16.11° C | 40% | 1020.3 hPa | 0 mm | - | 828 W/m² | - |
| 1778094630 | 15.56° C | 38% | 1020.4 hPa | 0 mm | - | 832 W/m² | - |
| 1778094327 | 15.56° C | 40% | 1020 hPa | 0 mm | - | 836 W/m² | - |
| 1778094024 | 16.11° C | 39% | 1020.3 hPa | 0 mm | - | 836 W/m² | - |
| 1778093721 | 15.56° C | 39% | 1020.4 hPa | 0 mm | - | 838 W/m² | - |
| 1778093417 | 15.56° C | 40% | 1020.5 hPa | 0 mm | - | 838 W/m² | - |
| 1778093115 | 15.56° C | 39% | 1020.6 hPa | 0 mm | - | 835 W/m² | - |
| 1778092812 | 16.11° C | 40% | 1020.4 hPa | 0 mm | - | 843 W/m² | - |
| 1778092508 | 15.56° C | 41% | 1020.6 hPa | 0 mm | - | 834 W/m² | - |
| 1778092205 | 16.11° C | 41% | 1020.8 hPa | 0 mm | - | 654 W/m² | - |
| 1778091902 | 16.11° C | 41% | 1020.5 hPa | 0 mm | - | 888 W/m² | - |
| 1778091599 | 15.56° C | 39% | 1020.8 hPa | 0 mm | - | 846 W/m² | - |
| 1778091297 | 15° C | 43% | 1020.8 hPa | 0 mm | - | 817 W/m² | - |
| 1778090988 | 15° C | 45% | 1021 hPa | 0 mm | - | 1043 W/m² | - |
| 1778090685 | 15° C | 43% | 1020.9 hPa | 0 mm | - | 460 W/m² | - |
| 1778090381 | 14.44° C | 45% | 1021 hPa | 0 mm | - | 551 W/m² | - |
* Rain latest hour (hover to see other rain measurements)
** Current wind speed in m/s (hover to see current wind gust speed)